STARLINK-11514, 62514

Orbit data source: Space-Track

STARLINK-11514, 62514 is a payload satellite owned by SpaceX/Seattle (US) in LEO that was launched on Wed, 08 Jan 2025 UTC via an FALCON 9 launch vehicle from the Air Force Eastern Test Range (AFETR). Payloads include a variety of satellites, spacecraft, and rockets equipped with specific instruments for various scientific and technological missions. These include communications satellites like Starlink; space stations such as the ISS; scientific satellites like the Hubble; Earth observation satellites from companies like Planet Labs, Umbra, and HawkEye 360; GPS; miniature CubeSats for education and research; and military/defense satellites.

Loading next visibility...
STARLINK-11514 details
Identifier
62514, 2025-004D
Orbit
LEO
Last TLE update11 hours ago
Origin
Flag of USSpaceX/Seattle (US)
ManufacturerSpaceX/Seattle
MissionOperational spacecraft
Bus & MotorSTARLINK V2M, Unknown motor
Mass730 kg wet, ~700 kg dry
Launch date (UTC)
2025-01-08 (1 month ago)
Launch vehicle
FALCON 9
Launch site
Air Force Eastern Test Range (AFETR)
Object type
Payload
Rocket body
Debris
Shape & HBRUnknown
Radar Cross SectionLarge (>1 m²)

Expand to show TLE details & history

TLE from 11 hours ago
0 STARLINK-11514
1 62514U 25004D   25035.83117707  .00021333  00000-0  12530-3 0  9994
2 62514  42.9957 309.9856 0001684 252.8124 107.2562 15.77828319  4625
Epoch: 2025-02-04T19:56Z
Definitive object data (Epoch: 2025-02-04T19:56:53.698Z)
Latitude-0.00002°
Longitude-124.46899°
Altitude336.7 km
Speed7.708 km/s
True Right ascension20h 39m 56s
True Declination0° 00' 00"
Sunlit
Object was in daylight at TLE epoch
Visualization TLE readout
Latitude39.87711°
Longitude-64.24413°
Altitude340.067 km
Speed7.71 km/s
Apparent Right ascension22h 51m 03s
Apparent Declination1° 23' 16"
Sunlit
Object is in daylight
Visualization observer readout
Local Sidereal Time08:54:48
Azimuth320.028° NNW
Elevation-40.896°
Doppler factor1
Orbital elements
Apogee altitude339.714 km
Perigee altitude337.452 km
Semi-major axis6,716.72 km
Eccentricity0.0001684
Inclination42.9957°
RAAN309.9856°
Arg. of periapsis252.8124°
True anomaly107.27463°
Mean anomaly107.2562°
Eccentric anomaly107.26541°
Mean motion3.94282 °/min
BSTAR0.0001253
Orbital period91.31 mins
Loading maneuver chart data...
Loading historical data...
Loading historical data...
Loading historical data...
Loading historical data...
Loading historical data...
Loading historical data...
Loading historical data...

STARLINK-11514 Visibility forecast

Observer location: undefined°, undefined

Span
Click to sort rows by Start time (UTC) header in descending order
Start Az.
Max El. time (UTC)
Max El. Az.
Max El.
End time (UTC)
End Az.
4 mins2025-02-05 22:01:33.679Z237.23° WSW2025-02-05 22:03:33.679Z118.389° SE41.054°2025-02-05 22:05:33.679Z76.663° E
4 mins2025-02-05 23:37:33.679Z292.479° WNW2025-02-05 23:38:33.679Z323.394° NNW32.092°2025-02-05 23:41:33.679Z68.45° E
4 mins2025-02-06 01:13:33.679Z301.09° NW2025-02-06 01:14:33.679Z334.513° NNW38.134°2025-02-06 01:17:33.679Z92.935° ESE
|